FW3933 Weather Reports


Display with metric or nautical units.
time (UTC)temp
F
wind
direction
speed
MPH
gust
MPH
rain 1hr
in
rain 24hr
in
rain mn
in
humidity
%
barometer
mb
20260507073516 59 292 0.0 2.0 0.00 0.00 0.00 83 1023.3
20260507073013 59 316 0.0 2.0 0.00 0.00 0.00 82 1023.3
20260507072514 59 317 0.0 3.0 0.00 0.00 0.00 82 1023.2
20260507072015 59 311 0.0 3.0 0.00 0.00 0.00 82 1023.2
20260507071517 60 301 0.0 4.0 0.00 0.00 0.00 81 1023.2
20260507070513 60 287 0.0 6.0 0.00 0.00 0.00 80 1023.2
20260507070019 60 306 1.0 6.0 0.00 0.00 0.00 80 1023.1
20260507065512 60 280 2.0 7.0 0.00 0.00 0.00 80 1023.1
20260507065013 60 299 0.0 8.0 0.00 0.00 0.00 80 1023.1
20260507064512 60 292 2.0 8.0 0.00 0.00 0.00 79 1023.1
20260507064012 60 298 2.0 8.0 0.00 0.00 0.00 79 1023.1
20260507063516 60 310 0.0 7.0 0.00 0.00 0.00 79 1023.0
20260507063015 61 317 1.0 8.0 0.00 0.00 0.00 79 1023.0
20260507062511 61 271 1.0 8.0 0.00 0.00 0.00 78 1023.1
20260507062013 61 285 0.0 7.0 0.00 0.00 0.00 79 1023.0
20260507061513 61 298 0.0 7.0 0.00 0.00 0.00 78 1023.0
20260507060513 61 301 2.0 9.0 0.00 0.00 0.00 78 1023.0
20260507060013 61 280 1.0 9.0 0.00 0.00 0.00 78 1023.0
20260507055513 61 240 2.0 7.0 0.00 0.00 0.00 77 1023.0
20260507055012 62 291 2.0 9.0 0.00 0.00 0.00 77 1023.0
20260507054513 62 332 2.0 9.0 0.00 0.00 0.00 77 1023.0
20260507054013 62 223 1.0 8.0 0.00 0.00 0.00 77 1022.9
20260507053517 62 259 1.0 11.0 0.00 0.00 0.00 76 1023.0
20260507053012 62 307 1.0 11.0 0.00 0.00 0.00 76 1023.0
20260507052512 62 312 2.0 10.0 0.00 0.00 0.00 76 1023.0
20260507052012 62 268 1.0 7.0 0.00 0.00 0.00 77 1023.0
20260507051513 62 280 1.0 7.0 0.00 0.00 0.00 76 1023.0
20260507050511 63 311 2.0 10.0 0.00 0.00 0.00 77 1022.9
20260507050034 63 244 1.0 10.0 0.00 0.00 0.00 76 1022.9
20260507045511 63 288 3.0 10.0 0.00 0.00 0.00 75 1022.9
20260507045012 63 248 2.0 9.0 0.00 0.00 0.00 75 1022.9
20260507044519 63 308 3.0 10.0 0.00 0.00 0.00 73 1022.9
20260507044011 63 253 3.0 10.0 0.00 0.00 0.00 73 1022.9
20260507043512 64 239 2.0 10.0 0.00 0.00 0.00 74 1022.9
20260507043011 64 302 1.0 10.0 0.00 0.00 0.00 73 1022.8
20260507042511 64 294 2.0 11.0 0.00 0.00 0.00 73 1022.8
20260507042010 64 244 3.0 11.0 0.00 0.00 0.00 72 1022.8
20260507041512 64 179 3.0 10.0 0.00 0.00 0.00 73 1022.7
20260507040511 65 251 2.0 8.0 0.00 0.00 0.00 71 1022.7
20260507040013 65 217 1.0 10.0 0.00 0.00 0.00 71 1022.7
20260507035510 65 172 2.0 11.0 0.00 0.00 0.00 71 1022.7
20260507035010 65 252 2.0 11.0 0.00 0.00 0.00 71 1022.6
20260507034512 65 182 1.0 8.0 0.00 0.00 0.00 71 1022.7
20260507034017 65 298 2.0 8.0 0.00 0.00 0.00 71 1022.7
20260507033510 65 279 2.0 13.0 0.00 0.00 0.00 72 1022.6
20260507033015 65 325 3.0 10.0 0.00 0.00 0.00 71 1022.6
20260507032510 65 312 3.0 10.0 0.00 0.00 0.00 71 1022.5
20260507032009 66 288 1.0 11.0 0.00 0.00 0.00 70 1022.4
20260507031510 66 263 4.0 11.0 0.00 0.00 0.00 70 1022.4
20260507030510 66 272 4.0 15.0 0.00 0.00 0.00 71 1022.4
20260507030011 66 285 4.0 15.0 0.00 0.00 0.00 72 1022.3
20260507025510 67 311 3.0 13.0 0.00 0.00 0.00 72 1022.4
20260507025015 67 261 5.0 13.0 0.00 0.00 0.00 71 1022.3
20260507024515 67 253 3.0 11.0 0.00 0.00 0.00 70 1022.2
20260507024009 67 232 4.0 12.0 0.00 0.00 0.00 70 1022.3
20260507023509 68 280 4.0 12.0 0.00 0.00 0.00 70 1022.3
20260507023010 68 268 4.0 14.0 0.00 0.00 0.00 70 1022.4
20260507022509 68 314 3.0 14.0 0.00 0.00 0.00 71 1022.4
20260507022009 69 278 3.0 10.0 0.00 0.00 0.00 69 1022.4
20260507021518 69 320 1.0 13.0 0.00 0.00 0.00 70 1022.4
20260507020509 70 322 9.0 14.0 0.00 0.00 0.00 67 1022.3
20260507020015 70 288 5.0 10.0 0.00 0.00 0.00 68 1022.4
20260507015510 70 310 3.0 17.0 0.00 0.00 0.00 70 1022.4
20260507015008 70 318 5.0 17.0 0.00 0.00 0.00 66 1022.4
20260507014508 71 335 4.0 18.0 0.00 0.00 0.00 70 1022.4
20260507014013 71 316 8.0 18.0 0.00 0.00 0.00 67 1022.3
20260507013508 72 267 4.0 13.0 0.00 0.00 0.00 64 1022.3
20260507013010 73 289 3.0 12.0 0.00 0.00 0.00 66 1022.3
20260507012507 74 321 1.0 7.0 0.00 0.00 0.00 62 1022.4
20260507012007 74 353 0.0 7.0 0.00 0.00 0.00 59 1022.5
20260507011515 74 224 0.0 7.0 0.00 0.00 0.00 57 1022.4
20260507010512 74 324 0.0 8.0 0.00 0.00 0.00 57 1022.4
20260507010015 73 326 1.0 11.0 0.00 0.00 0.00 57 1022.4
20260507005509 73 331 2.0 11.0 0.00 0.00 0.00 57 1022.4
20260507005012 73 283 3.0 11.0 0.00 0.00 0.00 57 1022.4
20260507004507 73 302 3.0 9.0 0.00 0.00 0.00 58 1022.3
20260507004007 73 269 2.0 11.0 0.00 0.00 0.00 56 1022.2
20260507003507 74 305 4.0 11.0 0.00 0.00 0.00 56 1022.3
20260507003006 74 307 1.0 6.0 0.00 0.00 0.00 57 1022.3
20260507002505 74 310 0.0 7.0 0.00 0.00 0.00 57 1022.4
20260507002005 74 305 0.0 9.0 0.00 0.00 0.00 58 1022.4
20260507001505 73 293 1.0 9.0 0.00 0.00 0.00 57 1022.4
20260507000508 74 302 1.0 7.0 0.00 0.00 0.00 58 1022.4
20260507000002 73 328 0.0 6.0 0.00 0.00 0.00 58 1022.5
20260506235502 73 349 0.0 7.0 0.00 0.00 0.00 59 1022.5
20260506235100 73 314 2.0 8.0 0.00 0.00 0.00 58 1022.6
20260506234626 72 313 2.0 9.0 0.00 0.00 0.00 60 1022.6
20260506234100 72 296 4.0 9.0 0.00 0.00 0.00 58 1022.7
20260506233600 72 296 1.0 8.0 0.00 0.00 0.00 61 1022.7
20260506233101 72 311 1.0 7.0 0.00 0.00 0.00 60 1022.7
20260506232559 72 307 1.0 8.0 0.00 0.00 0.00 60 1022.8
20260506232058 72 311 2.0 8.0 0.00 0.00 0.00 59 1022.8
20260506231557 72 312 1.0 8.0 0.00 0.00 0.00 60 1022.9
20260506231158 72 309 3.0 10.0 0.00 0.00 0.00 58 1023.1
20260506230600 72 321 3.0 10.0 0.00 0.00 0.00 57 1023.1
20260506230058 72 340 0.0 6.0 0.00 0.00 0.00 60 1023.2
20260506225557 71 292 0.0 6.0 0.00 0.00 0.00 60 1023.2
20260506225054 71 288 1.0 8.0 0.00 0.00 0.00 61 1023.3
20260506224552 70 286 0.0 8.0 0.00 0.00 0.00 61 1023.4
20260506224051 70 298 2.0 9.0 0.00 0.00 0.00 60 1023.5
20260506223553 71 309 2.0 9.0 0.00 0.00 0.00 60 1023.6
20260506223057 71 278 2.0 8.0 0.00 0.00 0.00 59 1023.7
20260506222550 71 288 0.0 8.0 0.00 0.00 0.00 58 1023.8
20260506222050 72 294 0.0 6.0 0.00 0.00 0.00 59 1023.8
20260506221551 71 241 0.0 7.0 0.00 0.00 0.00 59 1023.9
20260506221149 72 317 0.0 4.0 0.00 0.00 0.00 56 1024.0
20260506220549 72 282 0.0 3.0 0.00 0.00 0.00 56 1024.0
20260506220048 71 304 0.0 4.0 0.00 0.00 0.00 59 1024.1
20260506215549 71 317 0.0 4.0 0.00 0.00 0.00 60 1024.2
20260506215051 71 273 0.0 3.0 0.00 0.00 0.00 59 1024.3
20260506214548 71 270 0.0 3.0 0.00 0.00 0.00 60 1024.4
20260506214047 71 252 0.0 3.0 0.00 0.00 0.00 58 1024.4
20260506213548 71 273 0.0 3.0 0.00 0.00 0.00 58 1024.5
20260506213045 70 285 0.0 5.0 0.00 0.00 0.00 60 1024.6
20260506212545 70 264 0.0 5.0 0.00 0.00 0.00 59 1024.6
20260506212044 69 243 0.0 7.0 0.00 0.00 0.00 61 1024.7
20260506211544 70 290 0.0 7.0 0.00 0.00 0.00 60 1024.8
20260506211144 70 289 0.0 2.0 0.00 0.00 0.00 59 1024.8
20260506210544 70 205 0.0 2.0 0.00 0.00 0.00 59 1024.8
20260506210041 69 219 0.0 0.0 0.00 0.00 0.00 59 1024.8
20260506205540 69 207 0.0 2.0 0.00 0.00 0.00 63 1024.9
20260506205040 68 207 0.0 4.0 0.00 0.00 0.00 62 1025.0
20260506204551 68 299 0.0 5.0 0.00 0.00 0.00 62 1025.1
20260506204043 68 297 1.0 5.0 0.00 0.00 0.00 62 1025.3
20260506203540 68 284 0.0 0.0 0.00 0.00 0.00 61 1025.3
20260506203038 67 301 0.0 2.0 0.00 0.00 0.00 64 1025.2
20260506202537 67 277 0.0 6.0 0.00 0.00 0.00 66 1025.3
20260506202037 67 294 0.0 6.0 0.00 0.00 0.00 64 1025.4
20260506201539 67 317 0.0 4.0 0.00 0.00 0.00 65 1025.5
20260506201136 66 315 0.0 4.0 0.00 0.00 0.00 66 1025.6
20260506200537 66 303 0.0 4.0 0.00 0.00 0.00 68 1025.6
20260506200039 66 228 0.0 4.0 0.00 0.00 0.00 65 1025.7
20260506195537 66 277 0.0 4.0 0.00 0.00 0.00 67 1025.7
20260506195039 66 297 0.0 3.0 0.00 0.00 0.00 65 1025.7
20260506194544 66 283 0.0 5.0 0.00 0.00 0.00 66 1025.8
20260506194037 66 172 0.0 5.0 0.00 0.00 0.00 65 1025.9
20260506193539 65 226 0.0 5.0 0.00 0.00 0.00 68 1026.0
20260506193038 65 217 1.0 5.0 0.00 0.00 0.00 66 1026.1
20260506192536 65 191 0.0 4.0 0.00 0.00 0.00 68 1026.1
20260506192038 65 207 0.0 4.0 0.00 0.00 0.00 67 1026.1
20260506191536 65 227 0.0 4.0 0.00 0.00 0.00 67 1026.1
20260506191138 66 197 0.0 4.0 0.00 0.00 0.00 65 1026.2
20260506190536 66 201 0.0 2.0 0.00 0.00 0.00 65 1026.2
20260506190038 66 232 0.0 1.0 0.00 0.00 0.00 64 1026.2
20260506185535 66 309 0.0 1.0 0.00 0.00 0.00 64 1026.2
20260506185036 65 299 0.0 0.0 0.00 0.00 0.00 67 1026.2
20260506184533 64 296 0.0 3.0 0.00 0.00 0.00 69 1026.2
20260506184033 64 315 0.0 5.0 0.00 0.00 0.00 68 1026.2
20260506183532 65 353 0.0 4.0 0.00 0.00 0.00 69 1026.3
20260506183032 64 190 0.0 4.0 0.00 0.00 0.00 68 1026.3
20260506182530 63 191 0.0 4.0 0.00 0.00 0.00 72 1026.2
20260506182029 63 277 0.0 0.0 0.00 0.00 0.00 71 1026.3
20260506181529 63 231 0.0 0.0 0.00 0.00 0.00 72 1026.2
20260506181129 62 303 0.0 0.0 0.00 0.00 0.00 78 1026.3
20260506180530 61 303 0.0 0.0 0.00 0.00 0.00 78 1026.2
20260506180027 60 303 0.0 0.0 0.00 0.00 0.00 75 1026.2
20260506175524 60 303 0.0 0.0 0.00 0.00 0.00 77 1026.3
20260506175028 60 302 0.0 0.0 0.00 0.00 0.00 78 1026.4
20260506174523 59 302 0.0 0.0 0.00 0.00 0.00 79 1026.3
20260506174022 59 302 0.0 0.0 0.00 0.00 0.00 79 1026.2
20260506173521 59 303 0.0 3.0 0.00 0.00 0.00 82 1026.3
20260506173021 59 300 0.0 3.0 0.00 0.00 0.00 81 1026.4
20260506172519 58 298 0.0 0.0 0.00 0.00 0.00 82 1026.3
20260506172019 58 301 0.0 0.0 0.00 0.00 0.00 81 1026.3
20260506171532 58 301 0.0 0.0 0.00 0.00 0.00 83 1026.4
20260506171118 58 301 0.0 0.0 0.00 0.00 0.00 83 1026.3
20260506170518 58 301 0.0 5.0 0.00 0.00 0.00 83 1026.3
20260506170018 58 302 0.0 5.0 0.00 0.00 0.00 82 1026.2
20260506165519 58 254 0.0 5.0 0.00 0.00 0.00 83 1026.2
20260506165019 58 201 0.0 5.0 0.00 0.00 0.00 83 1026.2
20260506164519 57 317 0.0 5.0 0.00 0.00 0.00 84 1026.2
20260506164017 57 253 0.0 3.0 0.00 0.00 0.00 84 1026.2
20260506163518 57 252 0.0 5.0 0.00 0.00 0.00 84 1026.3
20260506163015 57 266 0.0 5.0 0.00 0.00 0.00 84 1026.3
20260506162514 57 248 0.0 4.0 0.00 0.00 0.00 84 1026.2
20260506162015 57 237 0.0 4.0 0.00 0.00 0.00 84 1026.2
20260506161514 57 303 0.0 6.0 0.00 0.00 0.00 85 1026.2
20260506161114 57 263 0.0 4.0 0.00 0.00 0.00 85 1026.1
20260506160516 57 290 0.0 4.0 0.00 0.00 0.00 85 1026.1
20260506160016 56 289 0.0 7.0 0.00 0.00 0.00 85 1026.1
20260506155513 56 240 0.0 7.0 0.00 0.00 0.00 85 1026.1
20260506155012 56 253 0.0 3.0 0.00 0.00 0.00 86 1026.1
20260506154512 56 287 0.0 3.0 0.00 0.00 0.00 86 1026.1
20260506154011 56 276 0.0 2.0 0.00 0.00 0.00 87 1026.1
20260506153512 56 275 0.0 4.0 0.00 0.00 0.00 86 1026.0
20260506153011 56 301 0.0 5.0 0.00 0.00 0.00 87 1026.1
20260506152510 56 299 0.0 5.0 0.00 0.00 0.00 87 1026.0
20260506152010 56 261 0.0 2.0 0.00 0.00 0.00 87 1026.1
20260506151509 55 261 0.0 3.0 0.00 0.00 0.00 87 1026.0
20260506151108 55 261 0.0 0.0 0.00 0.00 0.00 88 1026.0
20260506150511 55 261 0.0 0.0 0.00 0.00 0.00 88 1026.0
20260506150019 55 261 0.0 0.0 0.00 0.00 0.00 88 1026.0
20260506145507 55 261 0.0 3.0 0.00 0.00 0.00 88 1026.0
20260506145008 55 266 0.0 3.0 0.00 0.00 0.00 88 1026.0
20260506144506 55 265 0.0 3.0 0.00 0.00 0.00 89 1026.0
20260506144009 55 265 0.0 3.0 0.00 0.00 0.00 89 1026.0
20260506143506 54 269 0.0 0.0 0.00 0.00 0.00 89 1025.9
20260506143017 54 269 0.0 0.0 0.00 0.00 0.00 89 1025.9
20260506142502 54 269 0.0 0.0 0.00 0.00 0.00 88 1025.8
20260506142003 54 273 0.0 4.0 0.00 0.00 0.00 89 1025.7
20260506141502 54 205 0.0 0.0 0.00 0.00 0.00 89 1025.7
20260506141103 54 182 0.0 4.0 0.00 0.00 0.00 89 1025.6
20260506140502 54 182 0.0 4.0 0.00 0.00 0.00 89 1025.6
20260506140002 54 269 0.0 4.0 0.00 0.00 0.00 89 1025.7
20260506135501 54 269 0.0 4.0 0.00 0.00 0.00 89 1025.5
20260506135100 54 218 0.0 4.0 0.00 0.00 0.00 89 1025.5
20260506134601 54 277 0.0 4.0 0.00 0.00 0.00 89 1025.5
20260506134059 54 253 0.0 0.0 0.00 0.00 0.00 89 1025.5
20260506133559 54 253 0.0 0.0 0.00 0.00 0.00 88 1025.5
20260506133100 54 253 0.0 0.0 0.00 0.00 0.00 88 1025.4
20260506132557 54 254 0.0 0.0 0.00 0.00 0.00 88 1025.3
20260506132057 54 254 0.0 0.0 0.00 0.00 0.00 88 1025.3
20260506131559 54 254 0.0 0.0 0.00 0.00 0.00 88 1025.2
20260506131057 54 254 0.0 3.0 0.00 0.00 0.00 88 1025.1
20260506130557 54 254 0.0 3.0 0.00 0.00 0.00 88 1025.2
20260506130125 54 254 0.0 3.0 0.00 0.00 0.00 88 1025.2
20260506125559 54 255 0.0 0.0 0.00 0.00 0.00 88 1025.2
20260506125055 54 255 0.0 0.0 0.00 0.00 0.00 88 1025.1
20260506124555 54 255 0.0 0.0 0.00 0.00 0.00 88 1025.0
20260506124055 54 255 0.0 0.0 0.00 0.00 0.00 88 1025.0
20260506123558 54 255 0.0 0.0 0.00 0.00 0.00 88 1025.0
20260506123055 54 255 0.0 0.0 0.00 0.00 0.00 88 1025.0
20260506122555 54 255 0.0 0.0 0.00 0.00 0.00 88 1024.9
20260506122054 54 255 0.0 0.0 0.00 0.00 0.00 88 1025.0
20260506121555 54 255 0.0 0.0 0.00 0.00 0.00 88 1024.9
20260506121054 54 255 0.0 0.0 0.00 0.00 0.00 88 1024.9
20260506120556 54 255 0.0 0.0 0.00 0.00 0.00 88 1024.9
20260506120059 54 255 0.0 0.0 0.00 0.00 0.00 88 1024.9
20260506115555 54 255 0.0 0.0 0.00 0.00 0.00 88 1024.9
20260506115054 54 255 0.0 0.0 0.00 0.00 0.00 88 1024.8
20260506114553 54 255 0.0 0.0 0.00 0.00 0.00 88 1024.8
20260506114053 54 255 0.0 0.0 0.00 0.00 0.00 88 1024.8
20260506113553 54 255 0.0 0.0 0.00 0.00 0.00 88 1024.8
20260506113104 54 255 0.0 0.0 0.00 0.00 0.00 88 1024.7
20260506112554 54 255 0.0 0.0 0.00 0.00 0.00 88 1024.7
20260506112054 54 255 0.0 0.0 0.00 0.00 0.00 88 1024.7
20260506111554 54 255 0.0 0.0 0.00 0.00 0.00 88 1024.7
20260506111052 54 255 0.0 0.0 0.00 0.00 0.00 88 1024.6
20260506110551 54 255 0.0 0.0 0.00 0.00 0.00 88 1024.6
20260506110100 54 255 0.0 0.0 0.00 0.00 0.00 88 1024.6
20260506105550 54 255 0.0 0.0 0.00 0.00 0.00 88 1024.6
20260506105050 54 255 0.0 0.0 0.00 0.00 0.00 88 1024.5
20260506104613 54 255 0.0 0.0 0.00 0.00 0.00 88 1024.5
20260506104049 54 255 0.0 0.0 0.00 0.00 0.00 88 1024.5
20260506103548 54 255 0.0 0.0 0.00 0.00 0.00 89 1024.4
20260506103049 54 255 0.0 0.0 0.00 0.00 0.00 88 1024.4
20260506102548 54 255 0.0 0.0 0.00 0.00 0.00 88 1024.3
20260506102046 54 255 0.0 0.0 0.00 0.00 0.00 88 1024.2
20260506101554 54 255 0.0 0.0 0.00 0.00 0.00 88 1024.1
20260506101046 54 255 0.0 0.0 0.00 0.00 0.00 88 1024.1
20260506100550 54 255 0.0 0.0 0.00 0.00 0.00 88 1024.1
20260506100047 54 255 0.0 0.0 0.00 0.00 0.00 88 1024.1
20260506095550 54 255 0.0 0.0 0.00 0.00 0.00 88 1024.1
20260506095047 54 255 0.0 0.0 0.00 0.00 0.00 88 1024.1
20260506094555 54 255 0.0 0.0 0.00 0.00 0.00 88 1024.0
20260506094047 54 255 0.0 0.0 0.00 0.00 0.00 88 1024.0
20260506093548 54 255 0.0 0.0 0.00 0.00 0.00 88 1024.0
20260506093052 54 255 0.0 0.0 0.00 0.00 0.00 88 1024.0
20260506092545 54 255 0.0 0.0 0.00 0.00 0.00 88 1024.1
20260506092045 54 255 0.0 0.0 0.00 0.00 0.00 88 1024.1
20260506091545 54 255 0.0 0.0 0.00 0.00 0.00 88 1024.1
20260506091047 54 255 0.0 0.0 0.00 0.00 0.00 87 1024.1
20260506090550 54 255 0.0 0.0 0.00 0.00 0.00 87 1024.1
20260506090049 54 255 0.0 0.0 0.00 0.00 0.00 87 1024.1
20260506085545 54 255 0.0 0.0 0.00 0.00 0.00 87 1024.1
20260506085046 54 255 0.0 0.0 0.00 0.00 0.00 87 1024.1
20260506084549 54 255 0.0 0.0 0.00 0.00 0.00 87 1024.1
20260506084046 54 255 0.0 0.0 0.00 0.00 0.00 87 1024.1
20260506083545 54 255 0.0 0.0 0.00 0.00 0.00 87 1024.1
20260506083046 54 255 0.0 0.0 0.00 0.00 0.00 87 1024.1
20260506082547 54 255 0.0 0.0 0.00 0.00 0.00 87 1024.1
20260506082051 54 255 0.0 0.0 0.00 0.00 0.00 87 1024.1
20260506081547 54 255 0.0 0.0 0.00 0.00 0.00 86 1024.1
20260506081045 54 255 0.0 5.0 0.00 0.00 0.00 86 1024.1
20260506080544 54 255 0.0 5.0 0.00 0.00 0.00 86 1024.1